Change the Weather History Date:

Sunday, November 16, 2014

  Actual Average Record
Temperature  
Mean Temperature 35 °F 45 °F  
Max Temperature 39 °F 54 °F 76 °F (1931)
Min Temperature 30 °F 36 °F 16 °F (1976)
Degree Days  
Heating Degree Days 30 20  
Month to date heating degree days 378 273  
Since 1 July heating degree days 734 635  
Cooling Degree Days 0 0  
Month to date cooling degree days 0 0  
Year to date cooling degree days 1077 1121  
Moisture  
Dew Point 29 °F    
Average Humidity 72    
Maximum Humidity 89    
Minimum Humidity 54    
Precipitation  
Precipitation 0.15 in 0.12 in 1.31 in (1927)
Month to date precipitation 0.35 1.73  
Year to date precipitation 37.27 37.45  
Snow  
Snow 0.20 in 0.00 in 2.10 in (1920)
Month to date snowfall 0.2 0.1  
Since 1 July snowfall 0.2 0.5  
Since 1 September snowfall 0.2 0.5  
Snow Depth T in    
Sea Level Pressure  
Sea Level Pressure 30.07 in    
Wind  
Wind Speed 3 mph (SSW)    
Max Wind Speed 10 mph    
Max Gust Speed 12 mph    
Visibility 5 miles    
Events Rain , Snow    
T = Trace of Precipitation, MM = Missing Value Source: NWS Daily Summary

Daily Weather History Graph

Daily Weather History Graph

Search for Another Location

Airport or City:

Trip Planner

Search our weather history database for the weather conditions in past years. The results will help you decide how hot, cold, wet, or windy it might be!

Date:

Astronomy

Nov. 16, 2014 Rise Set
Actual Time 7:22 AM EST 5:23 PM EST
Civil Twilight 6:54 AM EST 5:52 PM EST
Nautical Twilight 6:21 AM EST 6:24 PM EST
Astronomical Twilight 5:50 AM EST 6:56 PM EST
Moon 1:31 AM EST (11/16) 2:14 PM EST (11/16)
Length of Visible Light 10h 58m
Length of Day
10h 01m
Waning Crescent, 31% of the Moon is Illuminated
Nov 16
Waning Crescent
Nov 22
New
Nov 29
First Quarter
Dec 6
Full
Dec 14
Last Quarter

Hourly Weather History & Observations

Time (EST) Temp. Windchill Dew Point Humidity Pressure Visibility Wind Dir Wind Speed Gust Speed Precip Events Conditions
12:52 AM 30.9 °F 27.5 °F 23.0 °F 72% 30.25 in 7.0 mi South 3.5 mph - 0.00 in Snow Light Snow
1:52 AM 30.9 °F - 25.0 °F 79% 30.23 in 7.0 mi Calm Calm - 0.00 in   Overcast
2:52 AM 32.0 °F - 26.1 °F 79% 30.22 in 8.0 mi Calm Calm - N/A   Overcast
3:52 AM 30.9 °F 24.3 °F 25.0 °F 79% 30.22 in 8.0 mi SSE 6.9 mph - N/A   Overcast
4:52 AM 32.0 °F - 25.0 °F 75% 30.19 in 8.0 mi Calm Calm - 0.00 in   Overcast
5:34 AM 32.0 °F 28.7 °F 26.6 °F 80% 30.18 in 2.0 mi SSE 3.5 mph - 0.00 in Snow Light Snow
5:52 AM 32.0 °F 26.4 °F 26.1 °F 79% 30.19 in 7.0 mi SSE 5.8 mph - 0.00 in Snow Light Snow
6:52 AM 32.0 °F 26.4 °F 25.0 °F 75% 30.19 in 9.0 mi South 5.8 mph - 0.00 in   Overcast
7:52 AM 32.0 °F 27.5 °F 25.0 °F 75% 30.18 in 8.0 mi South 4.6 mph - N/A   Overcast
8:52 AM 33.1 °F 27.7 °F 25.0 °F 72% 30.18 in 9.0 mi South 5.8 mph - N/A   Overcast
9:52 AM 35.1 °F 32.2 °F 27.0 °F 72% 30.17 in 10.0 mi South 3.5 mph - N/A   Overcast
10:52 AM 37.0 °F 34.5 °F 26.1 °F 65% 30.16 in 10.0 mi South 3.5 mph - N/A   Overcast
11:52 AM 39.0 °F 34.8 °F 25.0 °F 57% 30.13 in 10.0 mi SSW 5.8 mph - N/A   Overcast
12:52 PM 39.0 °F 34.8 °F 25.0 °F 57% 30.10 in 10.0 mi SW 5.8 mph - N/A   Overcast
1:52 PM 37.9 °F 34.4 °F 27.0 °F 65% 30.07 in 9.0 mi WSW 4.6 mph - N/A   Overcast
2:52 PM 37.4 °F 34.9 °F 28.4 °F 70% 30.04 in 6.0 mi SW 3.5 mph - N/A   Haze
3:52 PM 37.9 °F 35.5 °F 28.0 °F 68% 30.03 in 7.0 mi South 3.5 mph - N/A   Overcast
4:29 PM 37.4 °F 30.8 °F 30.2 °F 75% 30.01 in 2.5 mi SSE 9.2 mph - N/A   Haze
4:48 PM 37.4 °F 32.1 °F 30.2 °F 75% 30.01 in 1.8 mi SSW 6.9 mph - 0.00 in   Light Drizzle
4:52 PM 37.0 °F 31.6 °F 32.0 °F 82% 30.03 in 2.0 mi SSW 6.9 mph - 0.00 in   Light Drizzle
5:10 PM 37.4 °F 34.9 °F 33.8 °F 87% 30.01 in 1.5 mi SSW 3.5 mph - 0.01 in   Light Drizzle
5:30 PM 37.4 °F - 33.8 °F 87% 30.01 in 1.8 mi Calm Calm - 0.01 in   Light Drizzle
5:52 PM 37.0 °F - 33.1 °F 86% 30.01 in 1.8 mi Calm Calm - 0.01 in   Light Drizzle
6:52 PM 37.0 °F - 33.1 °F 86% 29.99 in 1.8 mi Calm Calm - 0.02 in   Light Drizzle
7:30 PM 35.6 °F - 33.8 °F 93% 29.95 in 2.0 mi Calm Calm - 0.01 in Rain Light Rain
7:52 PM 36.0 °F 33.3 °F 32.0 °F 86% 29.96 in 4.0 mi North 3.5 mph - 0.01 in Rain Light Rain
8:50 PM 35.6 °F - 33.8 °F 93% 29.92 in 1.5 mi Calm Calm - 0.01 in Rain Light Rain
8:52 PM 36.0 °F - 33.1 °F 89% 29.94 in 1.5 mi Calm Calm - 0.01 in Rain Light Rain
9:32 PM 35.6 °F - 32.0 °F 87% 29.92 in 0.8 mi Calm Calm - 0.02 in Rain Light Rain
9:52 PM 35.1 °F - 32.0 °F 89% 29.93 in 1.0 mi Calm Calm - 0.03 in Rain Light Rain
10:52 PM 34.0 °F 31.0 °F 30.0 °F 85% 29.91 in 1.0 mi NNW 3.5 mph - 0.04 in Snow Light Snow
11:36 PM 33.8 °F 30.8 °F 30.2 °F 87% 29.88 in 1.0 mi NNW 3.5 mph - 0.02 in Snow Light Snow
11:52 PM 33.1 °F 30.0 °F 30.0 °F 89% 29.90 in 0.5 mi NW 3.5 mph - 0.02 in Snow Light Snow